TimeGMT,TemperatureF,Dew PointF,Humidity,Sea Level PressureIn,VisibilityMPH,Wind Direction,Wind SpeedMPH,Gust SpeedMPH,PrecipitationIn,Events,Conditions,WindDirDegrees,DateUTC
12:00 AM,37,35,92,30.37,19,WSW,13.4,,,,Scattered Clouds,240,2013-12-06 00:00:00
12:00 AM,37.4,35.6,93,30.33,6.2,WSW,15.0,-,N/A,,Partly Cloudy,250,2013-12-06 00:00:00
1:00 AM,37.4,35.6,93,30.36,6.2,WSW,12.7,-,N/A,,Partly Cloudy,250,2013-12-06 01:00:00
2:00 AM,37.4,35.6,93,30.36,6.2,SW,12.7,-,N/A,,Partly Cloudy,230,2013-12-06 02:00:00
3:00 AM,37.4,35.6,93,30.36,6.2,WSW,13.8,-,N/A,,Scattered Clouds,240,2013-12-06 03:00:00
4:00 AM,39.2,37.4,93,30.36,6.2,WSW,11.5,-,N/A,,Mostly Cloudy,240,2013-12-06 04:00:00
5:00 AM,39.2,37.4,93,30.36,6.2,WSW,11.5,-,N/A,,Mostly Cloudy,240,2013-12-06 05:00:00
6:00 AM,40,38,92,30.39,12,SW,11.2,,,,Mostly Cloudy,230,2013-12-06 06:00:00
6:00 AM,41.0,39.2,93,30.36,6.2,WSW,10.4,-,N/A,,Mostly Cloudy,240,2013-12-06 06:00:00
7:00 AM,41.0,39.2,93,30.36,6.2,SW,8.1,-,N/A,,Overcast,230,2013-12-06 07:00:00
8:00 AM,42.8,41.0,93,30.36,6.2,SW,12.7,-,N/A,,Drizzle,220,2013-12-06 08:00:00
8:30 AM,42.8,42.8,100,30.36,6.2,SW,11.5,-,N/A,,Light Drizzle,220,2013-12-06 08:30:00
9:00 AM,42.8,42.8,100,30.36,5.0,SW,11.5,-,N/A,,Light Drizzle,230,2013-12-06 09:00:00
9:30 AM,44.6,42.8,93,30.36,5.0,SW,15.0,-,N/A,,Mostly Cloudy,230,2013-12-06 09:30:00
10:00 AM,44.6,44.6,100,30.36,6.2,WSW,12.7,-,N/A,,Mostly Cloudy,240,2013-12-06 10:00:00
10:30 AM,44.6,44.6,100,30.36,6.2,WSW,13.8,-,N/A,,Mostly Cloudy,250,2013-12-06 10:30:00
11:00 AM,46.4,44.6,93,30.36,6.2,WSW,12.7,-,N/A,,Mostly Cloudy,250,2013-12-06 11:00:00
11:30 AM,46.4,44.6,93,30.36,6.2,WSW,11.5,-,N/A,,Mostly Cloudy,250,2013-12-06 11:30:00
12:00 PM,47,45,90,30.38,11,WSW,13.4,,,,Partly Cloudy,250,2013-12-06 12:00:00
12:00 PM,46.4,44.6,93,30.36,6.2,WSW,12.7,-,N/A,,Mostly Cloudy,250,2013-12-06 12:00:00
12:30 PM,46.4,44.6,93,30.36,6.2,WSW,12.7,-,N/A,,Mostly Cloudy,240,2013-12-06 12:30:00
1:00 PM,46.4,44.6,93,30.36,6.2,WSW,13.8,-,N/A,,Mostly Cloudy,250,2013-12-06 13:00:00
1:30 PM,48.2,44.6,87,30.36,6.2,West,12.7,-,N/A,,Mostly Cloudy,260,2013-12-06 13:30:00
2:00 PM,48.2,44.6,87,30.36,6.2,West,13.8,-,N/A,,Mostly Cloudy,260,2013-12-06 14:00:00
2:30 PM,48.2,44.6,87,30.36,6.2,WSW,11.5,-,N/A,,Mostly Cloudy,250,2013-12-06 14:30:00
3:00 PM,48.2,44.6,87,30.36,6.2,WSW,9.2,-,N/A,,Mostly Cloudy,240,2013-12-06 15:00:00
3:30 PM,48.2,44.6,87,30.36,6.2,WSW,11.5,-,N/A,,Mostly Cloudy,240,2013-12-06 15:30:00
4:00 PM,46.4,42.8,87,30.36,6.2,WSW,11.5,-,N/A,,Light Drizzle,240,2013-12-06 16:00:00
4:30 PM,44.6,42.8,93,30.36,6.2,SW,10.4,-,N/A,,Mostly Cloudy,230,2013-12-06 16:30:00
5:00 PM,46.4,42.8,87,30.36,6.2,SW,12.7,-,N/A,,Mostly Cloudy,230,2013-12-06 17:00:00
6:00 PM,46,44,92,30.37,19,WSW,11.2,,,,Partly Cloudy,240,2013-12-06 18:00:00
6:00 PM,46.4,44.6,93,30.36,6.2,WSW,11.5,-,N/A,,Mostly Cloudy,240,2013-12-06 18:00:00
7:00 PM,44.6,44.6,100,30.36,6.2,SW,10.4,-,N/A,,Mostly Cloudy,230,2013-12-06 19:00:00
8:00 PM,44.6,44.6,100,30.36,6.2,WSW,12.7,-,N/A,,Mostly Cloudy,240,2013-12-06 20:00:00
9:00 PM,44.6,42.8,93,30.36,6.2,WSW,10.4,-,N/A,,Mostly Cloudy,240,2013-12-06 21:00:00
10:00 PM,42.8,42.8,100,30.33,6.2,SW,11.5,-,N/A,,Mostly Cloudy,220,2013-12-06 22:00:00
11:00 PM,44.6,42.8,93,30.33,6.2,SW,11.5,-,N/A,,Mostly Cloudy,230,2013-12-06 23:00:00